Location: Igon
(43.1667°N, 0.2333°W)
Time: 10:25:11
(UTC+00:00)

ATLAS 3B R/B - Pass Details

Date: 29 November 2020
Orbit: 1013 x 1182 km, 63.8° (Epoch: 08 January)

Event Time Altitude Azimuth Distance (km) Brightness Sun altitude
Exits shadow 03:30:35 24° 23° (NNE) 2,075 4.4 -39.6°
Maximum altitude 03:31:18 25° 33° (NNE) 2,062 4.4 -39.5°
Drops below altitude 10° 03:36:55 10° 86° (E) 2,987 5.7 -38.4°
Sets 03:40:15 0° 99° (E) 3,972 6.6 -37.8°
